• In Romania
  • List of Countries
  • For 7 days
  • Water Temperature
  • Satellite Maps
  • Weather Map
  • Weather Widgets
  • user-avatar
    Login

    Hourly Weather Laszow

    Today, 23 October, Tuesday

    Time Temperature Precipitation Wind Pressure Humidity
    00:00 +7°C° 0.1 mm 4 mps 745 mmHg 78%
    01:00 +7°C° 0 mm 4 mps 745 mmHg 81%
    02:00 +6°C° 0 mm 4 mps 745 mmHg 83%
    03:00 +5°C° 0 mm 4 mps 745 mmHg 85%
    04:00 +5°C° 0 mm 4 mps 744 mmHg 88%
    05:00 +4°C° 0 mm 4 mps 744 mmHg 88%
    06:00 +4°C° 0 mm 4 mps 743 mmHg 89%
    07:00 +4°C° 0 mm 4 mps 743 mmHg 88%
    08:00 +5°C° 0 mm 5 mps 742 mmHg 78%
    09:00 +5°C° 0 mm 6 mps 741 mmHg 68%
    10:00 +8°C° 0 mm 7 mps 740 mmHg 58%
    11:00 +8°C° 0.1 mm 7 mps 739 mmHg 57%
    12:00 +7°C° 0.1 mm 8 mps 738 mmHg 56%
    13:00 +9°C° 0.1 mm 8 mps 737 mmHg 55%
    14:00 +7°C° 0.5 mm 9 mps 736 mmHg 59%
    15:00 +7°C° 0.5 mm 9 mps 735 mmHg 63%
    16:00 +6°C° 0.5 mm 10 mps 733 mmHg 68%
    17:00 +6°C° 0.7 mm 10 mps 733 mmHg 71%
    18:00 +6°C° 0.7 mm 10 mps 732 mmHg 75%
    19:00 +6°C° 0.7 mm 10 mps 731 mmHg 78%
    20:00 +7°C° 0.8 mm 10 mps 730 mmHg 79%
    21:00 +7°C° 0.8 mm 10 mps 729 mmHg 80%
    22:00 +8°C° 0.8 mm 10 mps 729 mmHg 81%
    23:00 +8°C° 1.4 mm 10 mps 728 mmHg 80%

    Tomorrow, 24 October, Wednesday

    Time Temperature Precipitation Wind Pressure Humidity
    00:00 +7°C° 1.4 mm 9 mps 728 mmHg 79%
    01:00 +7°C° 1.4 mm 8 mps 727 mmHg 79%
    02:00 +6°C° 0.3 mm 8 mps 727 mmHg 77%
    03:00 +6°C° 0.3 mm 9 mps 727 mmHg 75%
    04:00 +5°C° 0.3 mm 9 mps 726 mmHg 73%
    05:00 +5°C° 0.1 mm 9 mps 727 mmHg 71%
    06:00 +3°C° 0.1 mm 9 mps 727 mmHg 68%
    07:00 +3°C° 0.1 mm 10 mps 727 mmHg 66%
    08:00 +3°C° 0.2 mm 10 mps 728 mmHg 62%
    09:00 +5°C° 0.2 mm 10 mps 729 mmHg 58%
    10:00 +4°C° 0.2 mm 11 mps 729 mmHg 53%
    11:00 +4°C° 0.1 mm 11 mps 730 mmHg 50%
    12:00 +4°C° 0.1 mm 11 mps 730 mmHg 46%
    13:00 +4°C° 0.1 mm 11 mps 731 mmHg 43%
    14:00 +5°C° 0 mm 10 mps 731 mmHg 44%
    15:00 +5°C° 0 mm 10 mps 732 mmHg 46%
    16:00 +3°C° 0 mm 9 mps 732 mmHg 47%
    17:00 +4°C° 0 mm 8 mps 733 mmHg 50%
    18:00 +2°C° 0 mm 8 mps 734 mmHg 52%
    19:00 +3°C° 0 mm 7 mps 734 mmHg 54%
    20:00 +3°C° 0 mm 7 mps 735 mmHg 56%
    21:00 +3°C° 0 mm 7 mps 735 mmHg 58%
    22:00 +2°C° 0 mm 7 mps 736 mmHg 60%
    23:00 +2°C° 0 mm 7 mps 736 mmHg 62%

    Day after tomorrow, 25 October, Thursday

    Time Temperature Precipitation Wind Pressure Humidity
    00:00 +2°C° 0 mm 6 mps 737 mmHg 64%
    01:00 +1°C° 0 mm 6 mps 737 mmHg 66%
    02:00 +1°C° 0 mm 6 mps 737 mmHg 69%
    03:00 +1°C° 0 mm 6 mps 737 mmHg 73%
    04:00 +1°C° 0 mm 5 mps 737 mmHg 76%
    05:00 +1°C° 0 mm 5 mps 737 mmHg 76%
    06:00 +1°C° 0 mm 5 mps 736 mmHg 76%
    07:00 +1°C° 0 mm 5 mps 736 mmHg 76%
    08:00 +2°C° 0.6 mm 5 mps 735 mmHg 78%
    09:00 +3°C° 0.6 mm 5 mps 735 mmHg 79%
    10:00 +3°C° 0.6 mm 6 mps 734 mmHg 81%
    11:00 +5°C° 0.8 mm 7 mps 733 mmHg 83%
    12:00 +6°C° 0.8 mm 8 mps 733 mmHg 84%
    13:00 +9°C° 0.8 mm 8 mps 732 mmHg 85%
    14:00 +9°C° 0.2 mm 8 mps 732 mmHg 85%
    15:00 +9°C° 0.2 mm 8 mps 732 mmHg 84%
    16:00 +9°C° 0.2 mm 8 mps 732 mmHg 84%
    17:00 +9°C° 0.2 mm 8 mps 732 mmHg 83%
    18:00 +9°C° 0.2 mm 8 mps 733 mmHg 83%
    19:00 +9°C° 0.2 mm 7 mps 733 mmHg 82%
    20:00 +8°C° 0.4 mm 7 mps 733 mmHg 83%
    21:00 +8°C° 0.4 mm 6 mps 734 mmHg 83%
    22:00 +8°C° 0.4 mm 5 mps 734 mmHg 83%
    23:00 +7°C° 0.1 mm 5 mps 734 mmHg 83%

    26 October, Friday

    Time Temperature Precipitation Wind Pressure Humidity
    00:00 +7°C° 0.1 mm 5 mps 734 mmHg 83%
    01:00 +7°C° 0.1 mm 4 mps 734 mmHg 83%
    02:00 +6°C° 0.1 mm 4 mps 735 mmHg 84%
    03:00 +6°C° 0.1 mm 4 mps 735 mmHg 85%
    04:00 +6°C° 0.1 mm 4 mps 735 mmHg 86%
    05:00 +6°C° 0 mm 4 mps 735 mmHg 87%
    06:00 +6°C° 0 mm 4 mps 735 mmHg 87%
    07:00 +5°C° 0 mm 4 mps 735 mmHg 87%
    08:00 +7°C° 0 mm 4 mps 735 mmHg 81%
    09:00 +8°C° 0 mm 4 mps 735 mmHg 74%
    10:00 +10°C° 0 mm 4 mps 735 mmHg 67%
    11:00 +11°C° 0 mm 4 mps 735 mmHg 66%
    12:00 +12°C° 0 mm 4 mps 734 mmHg 65%
    13:00 +13°C° 0 mm 4 mps 734 mmHg 65%
    14:00 +12°C° 0 mm 4 mps 733 mmHg 67%
    15:00 +12°C° 0 mm 4 mps 733 mmHg 69%
    16:00 +11°C° 0 mm 4 mps 732 mmHg 72%
    17:00 +11°C° 0 mm 4 mps 732 mmHg 74%
    18:00 +10°C° 0 mm 4 mps 732 mmHg 77%
    19:00 +8°C° 0 mm 4 mps 732 mmHg 79%
    20:00 +8°C° 0 mm 4 mps 732 mmHg 80%
    21:00 +8°C° 0 mm 4 mps 732 mmHg 81%
    22:00 +8°C° 0 mm 5 mps 732 mmHg 82%
    23:00 +8°C° 0 mm 5 mps 732 mmHg 82%

    27 October, Saturday

    Time Temperature Precipitation Wind Pressure Humidity
    00:00 +8°C° 0 mm 5 mps 732 mmHg 82%
    01:00 +7°C° 0 mm 5 mps 732 mmHg 81%
    02:00 +7°C° 0 mm 5 mps 732 mmHg 80%
    03:00 +7°C° 0 mm 5 mps 732 mmHg 79%
    04:00 +7°C° 0 mm 5 mps 732 mmHg 78%
    05:00 +6°C° 0 mm 5 mps 732 mmHg 77%
    06:00 +6°C° 0 mm 4 mps 733 mmHg 76%
    07:00 +6°C° 0 mm 4 mps 733 mmHg 74%
    08:00 +6°C° 0 mm 5 mps 733 mmHg 67%
    09:00 +7°C° 0 mm 5 mps 734 mmHg 61%
    10:00 +8°C° 0 mm 6 mps 734 mmHg 54%
    11:00 +8°C° 0 mm 5 mps 734 mmHg 52%
    12:00 +8°C° 0 mm 5 mps 734 mmHg 51%
    13:00 +8°C° 0 mm 5 mps 734 mmHg 49%
    14:00 +8°C° 0 mm 4 mps 734 mmHg 51%
    15:00 +9°C° 0 mm 3 mps 735 mmHg 53%
    16:00 +8°C° 0 mm 2 mps 735 mmHg 55%
    17:00 +8°C° 0 mm 2 mps 735 mmHg 57%
    18:00 +8°C° 0 mm 1 mps 735 mmHg 59%
    19:00 +8°C° 0 mm 1 mps 736 mmHg 61%
    20:00 +8°C° 0 mm 1 mps 736 mmHg 62%
    21:00 +8°C° 0 mm 1 mps 736 mmHg 64%
    22:00 +7°C° 0 mm 1 mps 736 mmHg 65%
    23:00 +7°C° 0.2 mm 1 mps 736 mmHg 68%

    28 October, Sunday

    Time Temperature Precipitation Wind Pressure Humidity
    00:00 +6°C° 0.2 mm 2 mps 736 mmHg 71%
    01:00 +6°C° 0.2 mm 2 mps 736 mmHg 73%
    02:00 +5°C° 0.3 mm 2 mps 736 mmHg 76%
    03:00 +4°C° 0.3 mm 3 mps 736 mmHg 78%
    04:00 +4°C° 0.3 mm 3 mps 736 mmHg 80%
    05:00 +4°C° 0.3 mm 3 mps 736 mmHg 81%
    06:00 +4°C° 0.3 mm 4 mps 736 mmHg 83%
    07:00 +4°C° 0.3 mm 4 mps 736 mmHg 84%
    08:00 +3°C° 0.3 mm 5 mps 736 mmHg 83%
    09:00 +3°C° 0.3 mm 5 mps 736 mmHg 82%
    10:00 +3°C° 0.3 mm 6 mps 735 mmHg 81%
    11:00 +3°C° 0.8 mm 6 mps 735 mmHg 83%
    12:00 +3°C° 0.8 mm 6 mps 735 mmHg 85%
    13:00 +3°C° 0.8 mm 6 mps 734 mmHg 86%
    14:00 +3°C° 1 mm 6 mps 734 mmHg 88%
    15:00 +3°C° 1 mm 6 mps 733 mmHg 89%
    16:00 +3°C° 1 mm 5 mps 733 mmHg 91%
    17:00 +3°C° 0.9 mm 5 mps 733 mmHg 92%
    18:00 +5°C° 0.9 mm 5 mps 733 mmHg 92%
    19:00 +5°C° 0.9 mm 4 mps 733 mmHg 93%
    20:00 +5°C° 0.9 mm 4 mps 732 mmHg 94%
    21:00 +5°C° 0.9 mm 4 mps 732 mmHg 94%
    22:00 +5°C° 0.9 mm 4 mps 732 mmHg 94%
    23:00 +5°C° 0.6 mm 4 mps 731 mmHg 95%

    29 October, Monday

    Time Temperature Precipitation Wind Pressure Humidity
    00:00 +6°C° 0.6 mm 4 mps 731 mmHg 95%
    01:00 +6°C° 0.6 mm 4 mps 730 mmHg 95%
    02:00 +8°C° 0.2 mm 3 mps 730 mmHg 94%
    03:00 +8°C° 0.2 mm 3 mps 730 mmHg 93%
    04:00 +9°C° 0.2 mm 3 mps 729 mmHg 93%
    05:00 +9°C° 0.1 mm 3 mps 729 mmHg 91%
    06:00 +9°C° 0.1 mm 3 mps 729 mmHg 90%
    07:00 +10°C° 0.1 mm 3 mps 729 mmHg 88%
    08:00 +11°C° 0.4 mm 3 mps 729 mmHg 85%
    09:00 +12°C° 0.4 mm 3 mps 729 mmHg 82%
    10:00 +13°C° 0.4 mm 4 mps 729 mmHg 79%
    11:00 +13°C° 0.3 mm 4 mps 729 mmHg 79%
    12:00 +13°C° 0.3 mm 4 mps 728 mmHg 79%
    13:00 +13°C° 0.3 mm 4 mps 728 mmHg 80%
    14:00 +13°C° 0.1 mm 4 mps 728 mmHg 81%
    15:00 +13°C° 0.1 mm 3 mps 728 mmHg 83%
    16:00 +13°C° 0.1 mm 3 mps 728 mmHg 84%
    17:00 +12°C° 0 mm 3 mps 728 mmHg 86%
    18:00 +12°C° 0 mm 3 mps 728 mmHg 87%
    19:00 +12°C° 0 mm 3 mps 729 mmHg 89%
    20:00 +12°C° 0 mm 3 mps 729 mmHg 89%
    21:00 +12°C° 0 mm 3 mps 729 mmHg 90%
    22:00 +11°C° 0 mm 3 mps 729 mmHg 90%
    23:00 +12°C° 0 mm 3 mps 729 mmHg 90%
    Show more